| time (UTC) | temp C | wind direction | speed KPH | gust KPH | rain 1hr cm | rain 24hr cm | rain mn cm | humidity % | barometer mb |
| 20260507052504 | 11 | 11 | 1.6 | 4.8 | 0.00 | 0.00 | 0.00 | 87 | 1021.2 |
| 20260507052004 | 11 | 23 | 3.2 | 4.8 | 0.00 | 0.00 | 0.00 | 86 | 1021.1 |
| 20260507050504 | 11 | 16 | 3.2 | 8.0 | 0.00 | 0.00 | 0.00 | 86 | 1021.3 |
| 20260507050003 | 11 | 27 | 3.2 | 4.8 | 0.00 | 0.00 | 0.00 | 85 | 1021.2 |
| 20260507045504 | 11 | 17 | 1.6 | 4.8 | 0.00 | 0.00 | 0.00 | 85 | 1021.3 |
| 20260507045004 | 11 | 10 | 3.2 | 4.8 | 0.00 | 0.00 | 0.00 | 85 | 1021.3 |
| 20260507044504 | 11 | 22 | 3.2 | 4.8 | 0.00 | 0.00 | 0.00 | 85 | 1021.3 |
| 20260507044004 | 11 | 16 | 3.2 | 4.8 | 0.00 | 0.00 | 0.00 | 85 | 1021.3 |
| 20260507043503 | 11 | 20 | 3.2 | 4.8 | 0.00 | 0.00 | 0.00 | 85 | 1021.2 |
| 20260507043004 | 11 | 2 | 4.8 | 8.0 | 0.00 | 0.00 | 0.00 | 85 | 1021.1 |
| 20260507042503 | 11 | 15 | 1.6 | 4.8 | 0.00 | 0.00 | 0.00 | 85 | 1021.2 |
| 20260507042003 | 11 | 28 | 4.8 | 9.7 | 0.00 | 0.00 | 0.00 | 85 | 1021.2 |
| 20260507041503 | 11 | 3 | 3.2 | 8.0 | 0.00 | 0.00 | 0.00 | 85 | 1021.2 |
| 20260507041004 | 11 | 1 | 3.2 | 4.8 | 0.00 | 0.00 | 0.00 | 85 | 1021.2 |
| 20260507040503 | 11 | 13 | 3.2 | 4.8 | 0.00 | 0.00 | 0.00 | 85 | 1021.1 |
| 20260507035504 | 11 | 12 | 3.2 | 4.8 | 0.00 | 0.00 | 0.00 | 85 | 1021.1 |
| 20260507034004 | 11 | 350 | 3.2 | 4.8 | 0.00 | 0.00 | 0.00 | 85 | 1021.0 |
| 20260507033503 | 11 | 15 | 3.2 | 4.8 | 0.00 | 0.00 | 0.00 | 85 | 1021.0 |
| 20260507033003 | 11 | 6 | 3.2 | 8.0 | 0.00 | 0.00 | 0.00 | 85 | 1020.9 |
| 20260507032504 | 11 | 20 | 4.8 | 8.0 | 0.00 | 0.00 | 0.00 | 85 | 1021.0 |
| 20260507032004 | 11 | 16 | 3.2 | 4.8 | 0.00 | 0.00 | 0.00 | 85 | 1020.9 |
| 20260507031504 | 11 | 25 | 4.8 | 8.0 | 0.00 | 0.00 | 0.00 | 84 | 1020.8 |
| 20260507031004 | 11 | 3 | 4.8 | 8.0 | 0.00 | 0.00 | 0.00 | 84 | 1020.8 |
| 20260507030503 | 11 | 20 | 3.2 | 8.0 | 0.00 | 0.00 | 0.00 | 85 | 1020.8 |
| 20260507030004 | 11 | 15 | 4.8 | 20.9 | 0.00 | 0.00 | 0.00 | 85 | 1020.8 |
| 20260507025503 | 11 | 35 | 4.8 | 12.9 | 0.00 | 0.00 | 0.00 | 84 | 1020.8 |
| 20260507025004 | 12 | 25 | 4.8 | 9.7 | 0.00 | 0.00 | 0.00 | 84 | 1020.8 |
| 20260507023504 | 12 | 2 | 3.2 | 8.0 | 0.00 | 0.00 | 0.00 | 83 | 1020.6 |
| 20260507023004 | 12 | 20 | 4.8 | 8.0 | 0.00 | 0.00 | 0.00 | 83 | 1020.5 |
| 20260507022503 | 12 | 10 | 3.2 | 8.0 | 0.00 | 0.00 | 0.00 | 83 | 1020.5 |
| 20260507022004 | 12 | 1 | 3.2 | 8.0 | 0.00 | 0.00 | 0.00 | 83 | 1020.4 |
| 20260507021504 | 12 | 16 | 3.2 | 4.8 | 0.00 | 0.00 | 0.00 | 83 | 1020.4 |
| 20260507021004 | 12 | 3 | 3.2 | 9.7 | 0.00 | 0.00 | 0.00 | 83 | 1020.5 |
| 20260507020504 | 12 | 4 | 4.8 | 8.0 | 0.00 | 0.00 | 0.00 | 83 | 1020.5 |
| 20260507020004 | 12 | 2 | 4.8 | 12.9 | 0.00 | 0.00 | 0.00 | 83 | 1020.5 |
| 20260507015503 | 12 | 344 | 3.2 | 12.9 | 0.00 | 0.00 | 0.00 | 82 | 1020.5 |
| 20260507015004 | 12 | 354 | 3.2 | 8.0 | 0.00 | 0.00 | 0.00 | 83 | 1020.6 |
| 20260507014504 | 12 | 12 | 3.2 | 4.8 | 0.00 | 0.00 | 0.00 | 83 | 1020.6 |
| 20260507014004 | 12 | 22 | 6.4 | 19.3 | 0.00 | 0.00 | 0.00 | 82 | 1020.6 |
| 20260507013504 | 12 | 5 | 4.8 | 8.0 | 0.00 | 0.00 | 0.00 | 83 | 1020.6 |
| 20260507013004 | 12 | 0 | 3.2 | 8.0 | 0.00 | 0.00 | 0.00 | 83 | 1020.6 |
| 20260507012503 | 12 | 25 | 3.2 | 9.7 | 0.00 | 0.00 | 0.00 | 83 | 1020.6 |
| 20260507011504 | 12 | 29 | 3.2 | 12.9 | 0.00 | 0.00 | 0.00 | 82 | 1020.6 |
| 20260507010503 | 13 | 19 | 3.2 | 14.5 | 0.00 | 0.00 | 0.00 | 82 | 1020.6 |
| 20260507010004 | 13 | 30 | 4.8 | 12.9 | 0.00 | 0.00 | 0.00 | 82 | 1020.7 |
| 20260507005004 | 13 | 345 | 6.4 | 14.5 | 0.00 | 0.00 | 0.00 | 82 | 1020.8 |
| 20260507004504 | 13 | 1 | 4.8 | 12.9 | 0.00 | 0.00 | 0.00 | 81 | 1020.8 |
| 20260507004004 | 13 | 12 | 4.8 | 14.5 | 0.00 | 0.00 | 0.00 | 82 | 1020.7 |
| 20260507003503 | 13 | 11 | 4.8 | 8.0 | 0.00 | 0.00 | 0.00 | 82 | 1020.7 |
| 20260507003004 | 13 | 16 | 3.2 | 11.3 | 0.00 | 0.00 | 0.00 | 82 | 1020.7 |
| 20260507002503 | 13 | 350 | 8.0 | 19.3 | 0.00 | 0.00 | 0.00 | 81 | 1020.7 |
| 20260507002004 | 13 | 9 | 3.2 | 12.9 | 0.00 | 0.00 | 0.00 | 81 | 1020.7 |
| 20260507001504 | 13 | 12 | 3.2 | 4.8 | 0.00 | 0.00 | 0.00 | 82 | 1020.7 |
| 20260507000504 | 13 | 354 | 3.2 | 8.0 | 0.00 | 0.00 | 0.00 | 82 | 1020.7 |
| 20260507000004 | 13 | 23 | 3.2 | 4.8 | 0.00 | 0.00 | 0.00 | 82 | 1020.6 |
| 20260506235504 | 13 | 358 | 4.8 | 8.0 | 0.00 | 0.00 | 0.00 | 81 | 1020.7 |
| 20260506235004 | 13 | 4 | 4.8 | 12.9 | 0.00 | 0.00 | 0.00 | 81 | 1020.7 |
| 20260506234504 | 13 | 341 | 4.8 | 8.0 | 0.00 | 0.00 | 0.00 | 80 | 1020.7 |
| 20260506234004 | 13 | 6 | 4.8 | 12.9 | 0.00 | 0.00 | 0.00 | 80 | 1020.7 |
| 20260506233504 | 13 | 348 | 4.8 | 9.7 | 0.00 | 0.00 | 0.00 | 80 | 1020.6 |
| 20260506233003 | 14 | 16 | 4.8 | 14.5 | 0.00 | 0.00 | 0.00 | 79 | 1020.6 |
| 20260506232504 | 14 | 355 | 3.2 | 8.0 | 0.00 | 0.00 | 0.00 | 79 | 1020.5 |
| 20260506232004 | 14 | 3 | 3.2 | 12.9 | 0.00 | 0.00 | 0.00 | 79 | 1020.5 |
| 20260506231504 | 15 | 3 | 4.8 | 4.8 | 0.00 | 0.00 | 0.00 | 78 | 1020.6 |
| 20260506231004 | 15 | 345 | 4.8 | 9.7 | 0.00 | 0.00 | 0.00 | 78 | 1020.6 |
| 20260506230504 | 15 | 1 | 4.8 | 8.0 | 0.00 | 0.00 | 0.00 | 78 | 1020.6 |
| 20260506230004 | 15 | 350 | 6.4 | 11.3 | 0.00 | 0.00 | 0.00 | 76 | 1020.7 |
| 20260506225503 | 15 | 335 | 3.2 | 9.7 | 0.00 | 0.00 | 0.00 | 77 | 1020.7 |
| 20260506225004 | 15 | 9 | 4.8 | 9.7 | 0.00 | 0.00 | 0.00 | 77 | 1020.7 |
| 20260506224504 | 15 | 5 | 4.8 | 14.5 | 0.00 | 0.00 | 0.00 | 77 | 1020.7 |
| 20260506224004 | 16 | 6 | 4.8 | 8.0 | 0.00 | 0.00 | 0.00 | 76 | 1020.6 |
| 20260506223504 | 16 | 339 | 4.8 | 16.1 | 0.00 | 0.00 | 0.00 | 75 | 1020.6 |
| 20260506222504 | 16 | 359 | 4.8 | 9.7 | 0.00 | 0.00 | 0.00 | 75 | 1020.7 |
| 20260506222004 | 16 | 28 | 3.2 | 4.8 | 0.00 | 0.00 | 0.00 | 76 | 1020.7 |
| 20260506221504 | 16 | 0 | 3.2 | 8.0 | 0.00 | 0.00 | 0.00 | 75 | 1020.8 |
| 20260506221004 | 16 | 32 | 3.2 | 11.3 | 0.00 | 0.00 | 0.00 | 75 | 1020.8 |
| 20260506220504 | 16 | 340 | 3.2 | 14.5 | 0.00 | 0.00 | 0.00 | 75 | 1020.8 |
| 20260506215503 | 16 | 333 | 4.8 | 12.9 | 0.00 | 0.00 | 0.00 | 73 | 1020.8 |
| 20260506215004 | 16 | 1 | 6.4 | 12.9 | 0.00 | 0.00 | 0.00 | 73 | 1020.8 |
| 20260506214504 | 16 | 345 | 4.8 | 14.5 | 0.00 | 0.00 | 0.00 | 73 | 1020.7 |
| 20260506214004 | 16 | 348 | 4.8 | 9.7 | 0.00 | 0.00 | 0.00 | 74 | 1020.7 |
| 20260506213504 | 16 | 349 | 3.2 | 4.8 | 0.00 | 0.00 | 0.00 | 74 | 1020.7 |
| 20260506212504 | 17 | 18 | 4.8 | 8.0 | 0.00 | 0.00 | 0.00 | 73 | 1020.7 |
| 20260506212003 | 17 | 353 | 4.8 | 9.7 | 0.00 | 0.00 | 0.00 | 73 | 1020.7 |
| 20260506211504 | 17 | 356 | 3.2 | 8.0 | 0.00 | 0.00 | 0.00 | 72 | 1020.8 |
| 20260506211004 | 17 | 300 | 4.8 | 9.7 | 0.00 | 0.00 | 0.00 | 70 | 1020.8 |
| 20260506210503 | 17 | 21 | 3.2 | 4.8 | 0.00 | 0.00 | 0.00 | 73 | 1020.7 |
| 20260506210004 | 17 | 81 | 3.2 | 4.8 | 0.00 | 0.00 | 0.00 | 72 | 1020.7 |
| 20260506205504 | 17 | 43 | 4.8 | 4.8 | 0.00 | 0.00 | 0.00 | 72 | 1020.7 |
| 20260506204004 | 16 | 115 | 3.2 | 4.8 | 0.00 | 0.00 | 0.00 | 75 | 1020.6 |
| 20260506203004 | 16 | 55 | 3.2 | 9.7 | 0.00 | 0.00 | 0.00 | 72 | 1020.8 |
| 20260506202503 | 16 | 355 | 3.2 | 9.7 | 0.00 | 0.00 | 0.00 | 78 | 1020.7 |
| 20260506202004 | 16 | 16 | 3.2 | 4.8 | 0.00 | 0.00 | 0.00 | 80 | 1020.8 |
| 20260506201504 | 16 | 173 | 1.6 | 4.8 | 0.00 | 0.00 | 0.00 | 77 | 1020.8 |
| 20260506200504 | 15 | 187 | 3.2 | 4.8 | 0.00 | 0.00 | 0.00 | 75 | 1020.9 |
| 20260506200004 | 15 | 233 | 3.2 | 4.8 | 0.00 | 0.00 | 0.00 | 78 | 1020.8 |
| 20260506195503 | 15 | 20 | 3.2 | 4.8 | 0.00 | 0.00 | 0.00 | 81 | 1020.9 |
| 20260506195004 | 15 | 28 | 3.2 | 4.8 | 0.00 | 0.00 | 0.00 | 80 | 1020.8 |
| 20260506194504 | 15 | 22 | 3.2 | 4.8 | 0.00 | 0.00 | 0.00 | 80 | 1020.8 |
| 20260506194004 | 15 | 344 | 3.2 | 4.8 | 0.00 | 0.00 | 0.00 | 81 | 1020.8 |
| 20260506193504 | 15 | 358 | 3.2 | 4.8 | 0.00 | 0.00 | 0.00 | 82 | 1020.9 |
| 20260506193003 | 14 | 13 | 3.2 | 4.8 | 0.00 | 0.00 | 0.00 | 83 | 1020.8 |
| 20260506192504 | 14 | 17 | 3.2 | 4.8 | 0.00 | 0.00 | 0.00 | 84 | 1020.8 |
| 20260506192004 | 14 | 334 | 3.2 | 8.0 | 0.00 | 0.00 | 0.00 | 85 | 1020.7 |
| 20260506191003 | 13 | 8 | 3.2 | 4.8 | 0.00 | 0.00 | 0.00 | 86 | 1021.0 |
| 20260506190503 | 13 | 333 | 3.2 | 4.8 | 0.00 | 0.00 | 0.00 | 86 | 1021.0 |
| 20260506190004 | 13 | 0 | 3.2 | 4.8 | 0.00 | 0.00 | 0.00 | 86 | 1021.0 |
| 20260506185504 | 13 | 348 | 4.8 | 8.0 | 0.00 | 0.00 | 0.00 | 87 | 1021.0 |
| 20260506185004 | 13 | 31 | 1.6 | 3.2 | 0.00 | 0.00 | 0.00 | 87 | 1021.0 |
| 20260506184503 | 13 | 42 | 3.2 | 4.8 | 0.00 | 0.00 | 0.00 | 86 | 1021.0 |
| 20260506184003 | 13 | 23 | 4.8 | 4.8 | 0.00 | 0.00 | 0.00 | 87 | 1021.0 |
| 20260506183504 | 13 | 349 | 3.2 | 4.8 | 0.00 | 0.00 | 0.00 | 87 | 1020.9 |
| 20260506183005 | 13 | 355 | 3.2 | 4.8 | 0.00 | 0.00 | 0.00 | 87 | 1020.9 |
| 20260506182503 | 13 | 8 | 3.2 | 4.8 | 0.00 | 0.00 | 0.00 | 87 | 1020.9 |
| 20260506181504 | 13 | 348 | 3.2 | 4.8 | 0.00 | 0.00 | 0.00 | 87 | 1021.0 |
| 20260506180504 | 12 | 14 | 1.6 | 3.2 | 0.00 | 0.00 | 0.00 | 87 | 1020.9 |
| 20260506180004 | 12 | 24 | 1.6 | 4.8 | 0.00 | 0.00 | 0.00 | 87 | 1020.9 |
| 20260506175503 | 12 | 26 | 3.2 | 4.8 | 0.00 | 0.00 | 0.00 | 88 | 1020.9 |
| 20260506175004 | 12 | 27 | 3.2 | 4.8 | 0.00 | 0.00 | 0.00 | 89 | 1020.8 |
| 20260506174504 | 12 | 354 | 3.2 | 4.8 | 0.00 | 0.00 | 0.00 | 89 | 1020.7 |
| 20260506173504 | 12 | 18 | 1.6 | 4.8 | 0.00 | 0.00 | 0.00 | 88 | 1020.5 |
| 20260506173003 | 12 | 339 | 1.6 | 4.8 | 0.00 | 0.00 | 0.00 | 89 | 1020.5 |
| 20260506172504 | 12 | 355 | 1.6 | 3.2 | 0.00 | 0.00 | 0.00 | 89 | 1020.6 |
| 20260506172004 | 12 | 358 | 1.6 | 4.8 | 0.00 | 0.00 | 0.00 | 89 | 1020.6 |
| 20260506171503 | 12 | 52 | 1.6 | 3.2 | 0.00 | 0.00 | 0.00 | 89 | 1020.6 |
| 20260506171004 | 12 | 314 | 1.6 | 3.2 | 0.00 | 0.00 | 0.00 | 89 | 1020.6 |
| 20260506170504 | 12 | 308 | 1.6 | 3.2 | 0.00 | 0.00 | 0.00 | 88 | 1020.3 |
| 20260506170004 | 12 | 339 | 0.0 | 3.2 | 0.00 | 0.00 | 0.00 | 89 | 1020.4 |
| 20260506165503 | 12 | 351 | 0.0 | 4.8 | 0.00 | 0.00 | 0.00 | 88 | 1020.4 |
| 20260506165004 | 12 | 340 | 4.8 | 4.8 | 0.00 | 0.00 | 0.00 | 88 | 1020.5 |
| 20260506164504 | 12 | 0 | 3.2 | 4.8 | 0.00 | 0.00 | 0.00 | 88 | 1020.5 |
| 20260506164003 | 12 | 357 | 3.2 | 4.8 | 0.00 | 0.00 | 0.00 | 88 | 1020.5 |
| 20260506163504 | 12 | 336 | 1.6 | 4.8 | 0.00 | 0.00 | 0.00 | 89 | 1020.4 |
| 20260506163004 | 12 | 334 | 3.2 | 4.8 | 0.00 | 0.00 | 0.00 | 89 | 1020.4 |
| 20260506162504 | 12 | 320 | 3.2 | 4.8 | 0.00 | 0.00 | 0.00 | 89 | 1020.4 |
| 20260506161504 | 11 | 340 | 3.2 | 4.8 | 0.00 | 0.00 | 0.00 | 90 | 1020.2 |
| 20260506161003 | 11 | 67 | 1.6 | 3.2 | 0.00 | 0.00 | 0.00 | 90 | 1020.4 |
| 20260506160504 | 11 | 18 | 1.6 | 4.8 | 0.00 | 0.00 | 0.00 | 89 | 1020.4 |
| 20260506160004 | 11 | 341 | 3.2 | 4.8 | 0.00 | 0.00 | 0.00 | 89 | 1020.4 |
| 20260506155504 | 11 | 357 | 4.8 | 8.0 | 0.00 | 0.00 | 0.00 | 89 | 1020.4 |
| 20260506155004 | 11 | 355 | 1.6 | 4.8 | 0.00 | 0.00 | 0.00 | 89 | 1020.3 |
| 20260506154503 | 11 | 333 | 3.2 | 4.8 | 0.00 | 0.00 | 0.00 | 90 | 1020.3 |
| 20260506154004 | 11 | 26 | 1.6 | 4.8 | 0.00 | 0.00 | 0.00 | 90 | 1020.2 |
| 20260506153004 | 11 | 17 | 3.2 | 4.8 | 0.00 | 0.00 | 0.00 | 91 | 1019.9 |
| 20260506152504 | 11 | 56 | 1.6 | 4.8 | 0.00 | 0.00 | 0.00 | 91 | 1020.0 |
| 20260506152003 | 11 | 15 | 1.6 | 4.8 | 0.00 | 0.00 | 0.00 | 91 | 1019.8 |
| 20260506151504 | 11 | 306 | 1.6 | 3.2 | 0.00 | 0.00 | 0.00 | 92 | 1019.4 |
| 20260506151004 | 11 | 267 | 1.6 | 4.8 | 0.00 | 0.00 | 0.00 | 92 | 1019.4 |
| 20260506150504 | 11 | 323 | 3.2 | 4.8 | 0.00 | 0.00 | 0.00 | 92 | 1019.6 |
| 20260506145504 | 11 | 21 | 1.6 | 4.8 | 0.00 | 0.00 | 0.00 | 92 | 1019.9 |
| 20260506144504 | 10 | 324 | 4.8 | 9.7 | 0.00 | 0.00 | 0.00 | 93 | 1020.0 |
| 20260506144004 | 10 | 16 | 1.6 | 4.8 | 0.00 | 0.00 | 0.00 | 93 | 1020.0 |
| 20260506143504 | 10 | 15 | 1.6 | 4.8 | 0.00 | 0.00 | 0.00 | 93 | 1020.1 |
| 20260506142504 | 10 | 18 | 3.2 | 4.8 | 0.00 | 0.00 | 0.00 | 93 | 1020.2 |
| 20260506142004 | 10 | 13 | 3.2 | 4.8 | 0.00 | 0.00 | 0.00 | 93 | 1020.3 |
| 20260506141004 | 10 | 4 | 3.2 | 9.7 | 0.00 | 0.00 | 0.00 | 93 | 1020.0 |
| 20260506140504 | 10 | 20 | 4.8 | 8.0 | 0.00 | 0.00 | 0.00 | 93 | 1020.0 |
| 20260506140004 | 10 | 30 | 1.6 | 4.8 | 0.00 | 0.00 | 0.00 | 93 | 1019.9 |
| 20260506135504 | 10 | 19 | 4.8 | 8.0 | 0.00 | 0.00 | 0.00 | 93 | 1020.0 |
| 20260506135003 | 10 | 4 | 3.2 | 4.8 | 0.00 | 0.00 | 0.00 | 93 | 1019.7 |
| 20260506134004 | 10 | 351 | 3.2 | 4.8 | 0.00 | 0.00 | 0.00 | 93 | 1019.5 |
| 20260506133504 | 10 | 342 | 3.2 | 4.8 | 0.00 | 0.00 | 0.00 | 93 | 1019.4 |
| 20260506133003 | 10 | 23 | 3.2 | 4.8 | 0.00 | 0.00 | 0.00 | 93 | 1019.4 |
| 20260506132504 | 10 | 21 | 3.2 | 4.8 | 0.00 | 0.00 | 0.00 | 93 | 1019.6 |
| 20260506132005 | 10 | 347 | 1.6 | 4.8 | 0.00 | 0.00 | 0.00 | 93 | 1019.6 |
| 20260506131504 | 10 | 15 | 3.2 | 4.8 | 0.00 | 0.00 | 0.00 | 93 | 1019.5 |
| 20260506131004 | 10 | 23 | 1.6 | 4.8 | 0.00 | 0.00 | 0.00 | 93 | 1019.4 |
| 20260506130503 | 10 | 10 | 3.2 | 4.8 | 0.00 | 0.00 | 0.00 | 93 | 1019.3 |
| 20260506130004 | 10 | 25 | 3.2 | 4.8 | 0.00 | 0.00 | 0.00 | 93 | 1019.3 |
| 20260506125004 | 10 | 23 | 3.2 | 4.8 | 0.00 | 0.00 | 0.00 | 93 | 1019.3 |
| 20260506124504 | 10 | 15 | 3.2 | 4.8 | 0.00 | 0.00 | 0.00 | 93 | 1019.2 |
| 20260506123503 | 10 | 23 | 1.6 | 4.8 | 0.00 | 0.00 | 0.00 | 93 | 1019.0 |
| 20260506122003 | 10 | 29 | 3.2 | 4.8 | 0.00 | 0.00 | 0.00 | 93 | 1018.9 |
| 20260506121504 | 10 | 21 | 3.2 | 4.8 | 0.00 | 0.00 | 0.00 | 93 | 1018.8 |
| 20260506121003 | 10 | 21 | 1.6 | 4.8 | 0.00 | 0.00 | 0.00 | 93 | 1018.9 |
| 20260506120004 | 10 | 349 | 3.2 | 4.8 | 0.00 | 0.00 | 0.00 | 93 | 1018.9 |
| 20260506114504 | 11 | 21 | 1.6 | 4.8 | 0.00 | 0.00 | 0.00 | 93 | 1018.8 |
| 20260506114004 | 11 | 27 | 3.2 | 4.8 | 0.00 | 0.00 | 0.00 | 93 | 1018.9 |
| 20260506113004 | 11 | 22 | 3.2 | 8.0 | 0.00 | 0.00 | 0.00 | 93 | 1018.9 |
| 20260506112004 | 11 | 22 | 3.2 | 4.8 | 0.00 | 0.00 | 0.00 | 93 | 1018.7 |
| 20260506111004 | 11 | 11 | 3.2 | 4.8 | 0.00 | 0.00 | 0.00 | 93 | 1018.5 |
| 20260506110004 | 11 | 10 | 3.2 | 4.8 | 0.00 | 0.00 | 0.00 | 93 | 1018.5 |
| 20260506105503 | 11 | 25 | 3.2 | 4.8 | 0.00 | 0.00 | 0.00 | 92 | 1018.4 |
| 20260506105004 | 11 | 19 | 1.6 | 4.8 | 0.00 | 0.00 | 0.00 | 92 | 1018.4 |
| 20260506104503 | 11 | 2 | 3.2 | 4.8 | 0.00 | 0.00 | 0.00 | 92 | 1018.4 |
| 20260506104004 | 11 | 3 | 3.2 | 8.0 | 0.00 | 0.00 | 0.00 | 92 | 1018.4 |
| 20260506103004 | 11 | 22 | 3.2 | 9.7 | 0.00 | 0.00 | 0.00 | 92 | 1018.3 |
| 20260506102503 | 11 | 13 | 3.2 | 4.8 | 0.00 | 0.00 | 0.00 | 92 | 1018.3 |
| 20260506101503 | 11 | 9 | 3.2 | 4.8 | 0.00 | 0.00 | 0.00 | 92 | 1018.1 |
| 20260506100504 | 11 | 7 | 3.2 | 8.0 | 0.00 | 0.00 | 0.00 | 93 | 1018.1 |
| 20260506100004 | 11 | 331 | 3.2 | 8.0 | 0.00 | 0.00 | 0.00 | 92 | 1018.0 |
| 20260506095504 | 11 | 0 | 4.8 | 8.0 | 0.00 | 0.00 | 0.00 | 92 | 1017.9 |
| 20260506095004 | 11 | 9 | 1.6 | 4.8 | 0.00 | 0.00 | 0.00 | 92 | 1017.8 |
| 20260506094504 | 11 | 14 | 3.2 | 4.8 | 0.00 | 0.00 | 0.00 | 92 | 1017.8 |
| 20260506094004 | 11 | 341 | 3.2 | 8.0 | 0.00 | 0.00 | 0.00 | 92 | 1017.7 |
| 20260506093004 | 11 | 17 | 1.6 | 4.8 | 0.00 | 0.00 | 0.00 | 92 | 1017.7 |
| 20260506092504 | 11 | 3 | 3.2 | 9.7 | 0.00 | 0.00 | 0.00 | 92 | 1017.7 |
| 20260506092003 | 11 | 352 | 4.8 | 8.0 | 0.00 | 0.00 | 0.00 | 92 | 1017.6 |
| 20260506091504 | 11 | 343 | 3.2 | 4.8 | 0.00 | 0.00 | 0.00 | 92 | 1017.6 |
| 20260506091004 | 11 | 340 | 3.2 | 8.0 | 0.00 | 0.00 | 0.00 | 92 | 1017.6 |
| 20260506090504 | 11 | 2 | 3.2 | 9.7 | 0.00 | 0.00 | 0.00 | 92 | 1017.5 |
| 20260506090004 | 11 | 11 | 4.8 | 8.0 | 0.00 | 0.00 | 0.00 | 92 | 1017.5 |
| 20260506085503 | 11 | 9 | 4.8 | 8.0 | 0.00 | 0.00 | 0.00 | 92 | 1017.5 |
| 20260506085003 | 11 | 18 | 4.8 | 8.0 | 0.00 | 0.00 | 0.00 | 92 | 1017.6 |
| 20260506084004 | 11 | 6 | 3.2 | 4.8 | 0.00 | 0.00 | 0.00 | 92 | 1017.5 |
| 20260506083504 | 11 | 11 | 3.2 | 4.8 | 0.00 | 0.00 | 0.00 | 92 | 1017.6 |
| 20260506083004 | 11 | 23 | 3.2 | 4.8 | 0.00 | 0.00 | 0.00 | 92 | 1017.6 |
| 20260506082503 | 11 | 11 | 3.2 | 8.0 | 0.00 | 0.00 | 0.00 | 92 | 1017.6 |
| 20260506082004 | 11 | 18 | 3.2 | 4.8 | 0.00 | 0.00 | 0.00 | 92 | 1017.6 |
| 20260506081504 | 11 | 18 | 3.2 | 4.8 | 0.00 | 0.00 | 0.00 | 92 | 1017.5 |
| 20260506081004 | 11 | 345 | 3.2 | 4.8 | 0.00 | 0.00 | 0.00 | 92 | 1017.5 |
| 20260506080503 | 11 | 350 | 3.2 | 4.8 | 0.00 | 0.00 | 0.00 | 92 | 1017.5 |
| 20260506073504 | 11 | 19 | 3.2 | 4.8 | 0.00 | 0.00 | 0.00 | 92 | 1017.4 |
| 20260506072503 | 11 | 36 | 3.2 | 4.8 | 0.00 | 0.00 | 0.00 | 92 | 1017.3 |
| 20260506071506 | 11 | 37 | 3.2 | 4.8 | 0.00 | 0.00 | 0.00 | 93 | 1017.3 |
| 20260506071005 | 11 | 13 | 3.2 | 4.8 | 0.00 | 0.00 | 0.00 | 93 | 1017.1 |
| 20260506070504 | 11 | 19 | 3.2 | 4.8 | 0.00 | 0.00 | 0.00 | 93 | 1017.1 |
| 20260506062504 | 11 | 20 | 1.6 | 4.8 | 0.00 | 0.00 | 0.00 | 92 | 1016.9 |
| 20260506062003 | 11 | 350 | 1.6 | 4.8 | 0.00 | 0.00 | 0.00 | 92 | 1016.9 |
| 20260506061504 | 11 | 13 | 3.2 | 4.8 | 0.00 | 0.00 | 0.00 | 92 | 1016.8 |
| 20260506061004 | 11 | 11 | 3.2 | 4.8 | 0.00 | 0.00 | 0.00 | 92 | 1016.7 |